Flag Weather past 2 weeks in Danmarkshavn, Greenland

Now
-1 °F

Clear.


Feels Like: -20 °F
Forecast: N/A
Wind: 14 mph from Northwest

Location: Danmarkshavn

Current Time: Nov 27, 2014 at 9:15:17 PM

Latest Report: Nov 27, 2014 at 8:00 PM


Visibility: 31 mi

Pressure: 29.38 "Hg

Humidity: 68%

Dew point: -9 °F

Location of DanmarkshavnLocation

Historic Weather in Danmarkshavn — Graph

°F

Danmarkshavn temperature yesterday

Maximum temperature yesterday: 10 °F (at 6:00 AM)
Minimum temperature yesterday: -2 °F (at 7:00 PM)
Average temperature yesterday: 4 °F

Past Weeks' High & Low Weather Summary

 TemperatureHumidityPressure
High19 °F (Nov 23, 1:00 PM)90% (Nov 25, 1:00 PM)30.70 "Hg (Nov 25, 1:00 PM)
Low-17 °F (Nov 13, 5:00 AM)41% (Nov 23, 1:00 PM)29.26 "Hg (Nov 27, 1:00 PM)
Average-1 °F75%29.86 "Hg
* Reported Nov 12 7:00 PM — Nov 27 7:00 PM, Danmarkshavn, Weather by CustomWeather, © 2014

Note: Actual official high and low records may vary slightly from our data, if they occured in-between our weather recording intervals... More about our weather records

Advertising

Danmarkshavn weather history for previous 24 hours

 ConditionsComfort  
Time TempWeatherWind HumidityBarometerVisibility
7:00 PM
Nov 27
-1 °FSunny.17 mph68%29.35 "Hg28 mi
6:00 PM0 °FSunny.15 mph66%29.32 "Hg22 mi
5:00 PM-2 °FSunny.15 mph67%29.29 "Hg11 mi
4:00 PM-1 °FSunny.7 mphN/A29.29 "Hg31 mi
3:00 PM-7 °FSunny.3 mph69%29.26 "Hg31 mi
2:00 PM-8 °FSunny.2 mph80%29.26 "Hg31 mi
1:00 PM-9 °FSunny.No wind80%29.26 "Hg31 mi
12:00 PM-7 °FOvercast.No wind79%29.29 "Hg31 mi
11:00 AM-8 °FScattered clouds.1 mph79%29.29 "Hg31 mi
10:00 AM2 °FSunny.3 mph71%29.29 "Hg31 mi
9:00 AM-5 °FSunny.2 mph78%29.29 "Hg31 mi
8:00 AM2 °FSunny.8 mph70%29.29 "Hg31 mi
7:00 AM3 °FSunny.8 mph81%29.29 "Hg31 mi
6:00 AM5 °FClear.6 mph74%29.29 "Hg8 mi
5:00 AM3 °FPassing clouds.6 mph78%29.29 "Hg31 mi
4:00 AM6 °FPassing clouds.13 mph72%29.29 "Hg31 mi
3:00 AM7 °FClear.9 mph74%29.32 "Hg16 mi
2:00 AM2 °FClear.8 mph83%29.32 "Hg31 mi
1:00 AM4 °FPassing clouds.8 mph79%29.35 "Hg31 mi
12:00 AM6 °FClear.9 mph75%29.35 "Hg31 mi
11:00 PM
Nov 26
5 °FClear.14 mph78%29.35 "Hg13 mi
10:00 PM5 °FPassing clouds.17 mph80%29.38 "Hg8 mi
9:00 PM-1 °FClear.1 mph84%29.38 "Hg31 mi
Weather by CustomWeather, © 2014

See weather overviewHow to use our weather pages